Time,TemperatureF,DewpointF,PressureIn,WindDirection,WindDirectionDegrees,WindSpeedMPH,WindSpeedGustMPH,Humidity,HourlyPrecipIn,Conditions,Clouds,dailyrainin,SoftwareType,DateUTC
2013-01-19 00:07:00,28.8,26.5,30.26,WNW,292,0.0,-999.0,91,-99.99,,,0.00,Acu-Link.com,2013-01-19 05:07:00,
2013-01-19 00:22:00,28.4,26.1,30.26,West,270,0.0,-999.0,91,-99.99,,,0.00,Acu-Link.com,2013-01-19 05:22:00,
2013-01-19 00:37:00,28.0,25.7,30.26,West,270,1.7,-999.0,91,-99.99,,,0.00,Acu-Link.com,2013-01-19 05:37:00,
2013-01-19 00:53:00,28.0,25.7,30.25,WNW,292,0.0,-999.0,91,-99.99,,,0.00,Acu-Link.com,2013-01-19 05:53:00,
2013-01-19 01:08:00,27.9,25.6,30.25,WNW,292,2.2,-999.0,91,-99.99,,,0.00,Acu-Link.com,2013-01-19 06:08:00,
2013-01-19 01:23:00,27.7,25.7,30.25,West,270,1.7,-999.0,92,-99.99,,,0.00,Acu-Link.com,2013-01-19 06:23:00,
2013-01-19 01:39:00,27.7,25.7,30.25,WNW,292,1.7,-999.0,92,-99.99,,,0.00,Acu-Link.com,2013-01-19 06:39:00,
2013-01-19 01:54:00,27.5,25.5,30.25,WNW,292,1.7,-999.0,92,-99.99,,,0.00,Acu-Link.com,2013-01-19 06:54:00,
2013-01-19 02:09:00,27.5,25.5,30.26,NW,315,1.7,-999.0,92,-99.99,,,0.00,Acu-Link.com,2013-01-19 07:09:00,
2013-01-19 02:25:00,27.1,25.1,30.25,WNW,292,2.2,-999.0,92,-99.99,,,0.00,Acu-Link.com,2013-01-19 07:25:00,
2013-01-19 02:40:00,27.0,25.0,30.26,ENE,67,0.0,-999.0,92,-99.99,,,0.00,Acu-Link.com,2013-01-19 07:40:00,
2013-01-19 02:55:00,26.8,24.5,30.26,West,270,0.0,-999.0,91,-99.99,,,0.00,Acu-Link.com,2013-01-19 07:55:00,
2013-01-19 03:11:00,27.1,25.1,30.25,WNW,292,1.7,-999.0,92,-99.99,,,0.00,Acu-Link.com,2013-01-19 08:11:00,
2013-01-19 03:41:00,26.4,24.4,30.25,WNW,292,2.2,-999.0,92,-99.99,,,0.00,Acu-Link.com,2013-01-19 08:41:00,
2013-01-19 03:56:00,26.4,24.4,30.25,WNW,292,0.0,-999.0,92,-99.99,,,0.00,Acu-Link.com,2013-01-19 08:56:00,
2013-01-19 04:35:00,26.4,24.4,30.25,WNW,292,0.0,-999.0,92,-99.99,,,0.00,Acu-Link.com,2013-01-19 09:35:00,
2013-01-19 04:51:00,26.4,24.4,30.24,WNW,292,0.0,-999.0,92,-99.99,,,0.00,Acu-Link.com,2013-01-19 09:51:00,
2013-01-19 05:06:00,26.1,24.4,30.24,NW,315,2.2,-999.0,93,-99.99,,,0.00,Acu-Link.com,2013-01-19 10:06:00,
2013-01-19 05:21:00,25.7,24.0,30.24,WNW,292,0.0,-999.0,93,-99.99,,,0.00,Acu-Link.com,2013-01-19 10:21:00,
2013-01-19 05:36:00,25.5,23.5,30.25,West,270,1.1,-999.0,92,-99.99,,,0.00,Acu-Link.com,2013-01-19 10:36:00,
2013-01-19 05:51:00,25.7,23.7,30.25,WNW,292,1.1,-999.0,92,-99.99,,,0.00,Acu-Link.com,2013-01-19 10:51:00,
2013-01-19 06:07:00,25.5,23.5,30.25,WNW,292,1.7,-999.0,92,-99.99,,,0.00,Acu-Link.com,2013-01-19 11:07:00,
2013-01-19 07:56:00,28.6,28.1,30.26,NNW,337,0.0,-999.0,98,-99.99,,,0.00,Acu-Link.com,2013-01-19 12:56:00,
2013-01-19 08:11:00,28.6,28.1,30.25,WNW,292,0.0,-999.0,98,-99.99,,,0.00,Acu-Link.com,2013-01-19 13:11:00,
2013-01-19 08:27:00,28.9,28.4,30.25,West,270,0.0,-999.0,98,-99.99,,,0.00,Acu-Link.com,2013-01-19 13:27:00,
2013-01-19 08:42:00,29.1,28.6,30.25,WNW,292,1.7,-999.0,98,-99.99,,,0.00,Acu-Link.com,2013-01-19 13:42:00,
2013-01-19 08:57:00,30.2,29.7,30.25,NW,315,0.0,-999.0,98,-99.99,,,0.00,Acu-Link.com,2013-01-19 13:57:00,
2013-01-19 09:13:00,32.7,32.2,30.26,ESE,112,0.0,-999.0,98,-99.99,,,0.00,Acu-Link.com,2013-01-19 14:13:00,
2013-01-19 09:28:00,35.4,33.3,30.26,West,270,1.7,-999.0,92,-99.99,,,0.00,Acu-Link.com,2013-01-19 14:28:00,
2013-01-19 09:43:00,36.7,34.0,30.26,SSE,157,3.2,-999.0,90,-99.99,,,0.00,Acu-Link.com,2013-01-19 14:43:00,
2013-01-19 09:59:00,38.1,35.2,30.26,ESE,112,2.2,-999.0,89,-99.99,,,0.00,Acu-Link.com,2013-01-19 14:59:00,
2013-01-19 10:14:00,39.7,35.9,30.26,South,180,1.7,-999.0,86,-99.99,,,0.00,Acu-Link.com,2013-01-19 15:14:00,
2013-01-19 10:29:00,41.5,36.4,30.26,WSW,247,1.7,-999.0,82,-99.99,,,0.00,Acu-Link.com,2013-01-19 15:29:00,
2013-01-19 10:45:00,43.3,35.9,30.26,WSW,247,2.7,-999.0,75,-99.99,,,0.00,Acu-Link.com,2013-01-19 15:45:00,
2013-01-19 11:00:00,45.1,34.4,30.26,SW,225,4.7,-999.0,66,-99.99,,,0.00,Acu-Link.com,2013-01-19 16:00:00,
2013-01-19 11:15:00,46.2,33.1,30.24,SSE,157,3.7,-999.0,60,-99.99,,,0.00,Acu-Link.com,2013-01-19 16:15:00,
2013-01-19 11:31:00,46.9,33.3,30.24,SSE,157,3.7,-999.0,59,-99.99,,,0.00,Acu-Link.com,2013-01-19 16:31:00,
2013-01-19 11:46:00,48.0,33.5,30.23,SSE,157,4.2,-999.0,57,-99.99,,,0.00,Acu-Link.com,2013-01-19 16:46:00,
2013-01-19 12:01:00,48.9,34.3,30.21,SSW,202,2.7,-999.0,57,-99.99,,,0.00,Acu-Link.com,2013-01-19 17:01:00,
2013-01-19 12:32:00,50.0,31.6,30.18,SW,225,8.3,-999.0,49,-99.99,,,0.00,Acu-Link.com,2013-01-19 17:32:00,
2013-01-19 13:18:00,51.8,31.7,30.14,SW,225,4.7,-999.0,46,-99.99,,,0.00,Acu-Link.com,2013-01-19 18:18:00,
2013-01-19 13:33:00,52.3,32.7,30.13,SSW,202,4.2,-999.0,47,-99.99,,,0.00,Acu-Link.com,2013-01-19 18:33:00,
2013-01-19 13:48:00,52.7,32.5,30.12,SSE,157,4.7,-999.0,46,-99.99,,,0.00,Acu-Link.com,2013-01-19 18:48:00,
2013-01-19 14:04:00,53.2,34.0,30.11,SSE,157,2.7,-999.0,48,-99.99,,,0.00,Acu-Link.com,2013-01-19 19:04:00,
2013-01-19 14:19:00,53.4,32.6,30.09,South,180,2.7,-999.0,45,-99.99,,,0.00,Acu-Link.com,2013-01-19 19:19:00,
2013-01-19 14:50:00,54.0,33.7,30.08,South,180,2.7,-999.0,46,-99.99,,,0.00,Acu-Link.com,2013-01-19 19:50:00,
2013-01-19 16:21:00,54.7,33.8,30.05,South,180,3.2,-999.0,45,-99.99,,,0.00,Acu-Link.com,2013-01-19 21:21:00,
2013-01-19 17:23:00,51.6,33.1,30.05,South,180,2.7,-999.0,49,-99.99,,,0.00,Acu-Link.com,2013-01-19 22:23:00,
2013-01-19 17:38:00,50.5,33.1,30.05,SE,135,2.7,-999.0,51,-99.99,,,0.00,Acu-Link.com,2013-01-19 22:38:00,
2013-01-19 17:53:00,49.5,33.1,30.05,West,270,1.7,-999.0,53,-99.99,,,0.00,Acu-Link.com,2013-01-19 22:53:00,
2013-01-19 18:09:00,48.0,33.1,30.05,SSW,202,2.7,-999.0,56,-99.99,,,0.00,Acu-Link.com,2013-01-19 23:09:00,
2013-01-19 18:24:00,46.8,33.2,30.04,SW,225,0.0,-999.0,59,-99.99,,,0.00,Acu-Link.com,2013-01-19 23:24:00,
2013-01-19 18:39:00,46.2,35.1,30.05,SSE,157,1.1,-999.0,65,-99.99,,,0.00,Acu-Link.com,2013-01-19 23:39:00,
2013-01-19 18:54:00,45.3,35.0,30.06,SSE,157,0.0,-999.0,67,-99.99,,,0.00,Acu-Link.com,2013-01-19 23:54:00,
2013-01-19 19:10:00,44.6,34.7,30.05,ESE,112,0.0,-999.0,68,-99.99,,,0.00,Acu-Link.com,2013-01-20 00:10:00,
2013-01-19 19:25:00,44.8,34.9,30.05,South,180,0.0,-999.0,68,-99.99,,,0.00,Acu-Link.com,2013-01-20 00:25:00,
2013-01-19 19:40:00,44.4,34.1,30.05,SE,135,1.1,-999.0,67,-99.99,,,0.00,Acu-Link.com,2013-01-20 00:40:00,
2013-01-19 19:56:00,43.5,33.3,30.06,NW,315,0.0,-999.0,67,-99.99,,,0.00,Acu-Link.com,2013-01-20 00:56:00,
2013-01-19 20:26:00,42.6,32.4,30.05,SW,225,1.1,-999.0,67,-99.99,,,0.00,Acu-Link.com,2013-01-20 01:26:00,
2013-01-19 21:43:00,41.2,33.6,30.04,WSW,247,0.0,-999.0,74,-99.99,,,0.00,Acu-Link.com,2013-01-20 02:43:00,
2013-01-19 21:58:00,41.4,33.7,30.04,South,180,1.7,-999.0,74,-99.99,,,0.00,Acu-Link.com,2013-01-20 02:58:00,
2013-01-19 22:13:00,40.6,33.0,30.04,WNW,292,0.0,-999.0,74,-99.99,,,0.00,Acu-Link.com,2013-01-20 03:13:00,
2013-01-19 22:44:00,39.4,32.5,30.04,WNW,292,2.2,-999.0,76,-99.99,,,0.00,Acu-Link.com,2013-01-20 03:44:00,
2013-01-19 22:59:00,39.0,32.1,30.04,SW,225,0.0,-999.0,76,-99.99,,,0.00,Acu-Link.com,2013-01-20 03:59:00,
2013-01-19 23:14:00,40.1,31.8,30.04,SSW,202,1.7,-999.0,72,-99.99,,,0.00,Acu-Link.com,2013-01-20 04:14:00,
2013-01-19 23:30:00,41.2,31.8,30.03,ENE,67,2.2,-999.0,69,-99.99,,,0.00,Acu-Link.com,2013-01-20 04:30:00,
2013-01-19 23:45:00,41.4,31.6,30.03,NW,315,0.0,-999.0,68,-99.99,,,0.00,Acu-Link.com,2013-01-20 04:45:00,